Kezdőlap
METAR-TAF:

METAR-TAF

Repülőterek :

Harlan Municipal Airport

Harlan, Iowa, Amerikai Egyesült Államok

földrajzi szélesség: 41-35-04N, földrajzi hosszúság: 095-20-23W, magasság: 375 m

Jelenlegi meteorológiai megfigyelések

A jelentés 28 perccel ezelõtt készült, 13:55 UTC
Déli szél 6 kt
Hőmérséklet 24°C
Páratartalom 106%
Légköri nyomás 1018 hPa
Látótávolság: 14.5 km
Derült ég

METAR: KHNR 281355Z AUTO 19006KT 9SM CLR 24/25 A3006 RMK A01

Idő: 09:23 (14:23 UTC)


TAF: hiányzik

Meteorológiai megfigyelések és előrejelzések több, mint 4000 repülőtéren (METAR és TAF jelentéseket).

A térképen piros és sárga pontok jelzik az elérhető meteorológiai állomásokat.

Mozgassa az egeret a pont fölött, hogy megjelenjen az állomás neve.

Azután kattintson az időjárási megfigyelések és előrejelzések megtekintéséhez.

A térkép megváltoztatása: kattintson a fekete keresztel jelölt zöld gombra ráközelítéshez, a vonallal jelölt zöld gombra távolításhoz, vagy a zöld nyilakra a szomszédos térképek eléréséhez.


METAR-TAF: